| time (UTC) | temp F | wind direction | speed MPH | gust MPH | rain 1hr in | rain 24hr in | rain mn in | humidity % | barometer mb |
| 20260504044539 | 57 | 32 | 23.0 | 29.0 | 0.00 | 0.00 | 0.00 | 37 | 1010.8 |
| 20260504043053 | 56 | 360 | 10.0 | 15.0 | 0.00 | 0.00 | 0.00 | 37 | 1010.2 |
| 20260504041550 | 57 | 360 | 11.0 | 15.0 | 0.00 | 0.00 | 0.00 | 37 | 1009.8 |
| 20260504040053 | 58 | 23 | 11.0 | 19.0 | 0.00 | 0.00 | 0.00 | 35 | 1009.3 |
| 20260504034550 | 58 | 360 | 11.0 | 16.0 | 0.00 | 0.00 | 0.00 | 35 | 1009.1 |
| 20260504033051 | 59 | 360 | 11.0 | 16.0 | 0.00 | 0.00 | 0.00 | 34 | 1008.8 |
| 20260504031548 | 60 | 55 | 9.0 | 14.0 | 0.00 | 0.00 | 0.00 | 32 | 1008.5 |
| 20260504030053 | 61 | 34 | 10.0 | 14.0 | 0.00 | 0.00 | 0.00 | 29 | 1008.4 |
| 20260504024604 | 62 | 43 | 8.0 | 13.0 | 0.00 | 0.00 | 0.00 | 27 | 1008.2 |
| 20260504023048 | 63 | 360 | 6.0 | 9.0 | 0.00 | 0.00 | 0.00 | 22 | 1008.0 |
| 20260504021552 | 65 | 360 | 9.0 | 11.0 | 0.00 | 0.00 | 0.00 | 21 | 1008.0 |
| 20260504020051 | 68 | 360 | 10.0 | 14.0 | 0.00 | 0.00 | 0.00 | 20 | 1008.1 |
| 20260504014603 | 70 | 360 | 11.0 | 15.0 | 0.00 | 0.00 | 0.00 | 19 | 1008.0 |
| 20260504013054 | 71 | 9 | 13.0 | 18.0 | 0.00 | 0.00 | 0.00 | 18 | 1008.0 |
| 20260504011551 | 72 | 5 | 11.0 | 16.0 | 0.00 | 0.00 | 0.00 | 18 | 1008.2 |
| 20260504004551 | 73 | 344 | 16.0 | 21.0 | 0.00 | 0.00 | 0.00 | 17 | 1008.2 |
| 20260504003052 | 74 | 346 | 15.0 | 19.0 | 0.00 | 0.00 | 0.00 | 17 | 1008.2 |
| 20260504001554 | 74 | 319 | 16.0 | 23.0 | 0.00 | 0.00 | 0.00 | 16 | 1008.6 |
| 20260504000138 | 74 | 318 | 11.0 | 22.0 | 0.00 | 0.00 | 0.00 | 16 | 1008.7 |
| 20260503234554 | 74 | 352 | 15.0 | 18.0 | 0.00 | 0.00 | 0.00 | 16 | 1008.5 |
| 20260503233044 | 75 | 343 | 14.0 | 21.0 | 0.00 | 0.00 | 0.00 | 16 | 1008.9 |
| 20260503231552 | 75 | 316 | 13.0 | 22.0 | 0.00 | 0.00 | 0.00 | 16 | 1009.1 |
| 20260503230055 | 75 | 292 | 8.0 | 18.0 | 0.00 | 0.00 | 0.00 | 16 | 1009.1 |
| 20260503224547 | 75 | 299 | 14.0 | 22.0 | 0.00 | 0.00 | 0.00 | 16 | 1009.1 |
| 20260503223048 | 75 | 348 | 13.0 | 24.0 | 0.00 | 0.00 | 0.00 | 16 | 1009.4 |
| 20260503221554 | 75 | 334 | 13.0 | 20.0 | 0.00 | 0.00 | 0.00 | 16 | 1009.5 |
| 20260503220051 | 74 | 342 | 12.0 | 21.0 | 0.00 | 0.00 | 0.00 | 17 | 1009.6 |
| 20260503214548 | 73 | 294 | 6.0 | 22.0 | 0.00 | 0.00 | 0.00 | 17 | 1009.9 |
| 20260503213048 | 74 | 337 | 13.0 | 20.0 | 0.00 | 0.00 | 0.00 | 16 | 1010.0 |
| 20260503211602 | 74 | 321 | 15.0 | 23.0 | 0.00 | 0.00 | 0.00 | 15 | 1010.4 |
| 20260503210053 | 74 | 300 | 17.0 | 23.0 | 0.00 | 0.00 | 0.00 | 16 | 1010.4 |
| 20260503204546 | 73 | 281 | 15.0 | 23.0 | 0.00 | 0.00 | 0.00 | 17 | 1010.7 |
| 20260503203100 | 73 | 305 | 16.0 | 25.0 | 0.00 | 0.00 | 0.00 | 17 | 1010.9 |
| 20260503201549 | 73 | 257 | 12.0 | 22.0 | 0.00 | 0.00 | 0.00 | 18 | 1011.2 |
| 20260503200055 | 73 | 306 | 7.0 | 22.0 | 0.00 | 0.00 | 0.00 | 17 | 1011.1 |
| 20260503194555 | 72 | 306 | 11.0 | 19.0 | 0.00 | 0.00 | 0.00 | 18 | 1011.3 |
| 20260503193050 | 72 | 317 | 12.0 | 17.0 | 0.00 | 0.00 | 0.00 | 17 | 1011.4 |
| 20260503191552 | 71 | 278 | 6.0 | 18.0 | 0.00 | 0.00 | 0.00 | 19 | 1011.7 |
| 20260503190053 | 72 | 265 | 13.0 | 21.0 | 0.00 | 0.00 | 0.00 | 18 | 1011.9 |
| 20260503184543 | 71 | 311 | 15.0 | 19.0 | 0.00 | 0.00 | 0.00 | 19 | 1012.0 |
| 20260503183055 | 70 | 242 | 9.0 | 20.0 | 0.00 | 0.00 | 0.00 | 22 | 1012.3 |
| 20260503181601 | 71 | 293 | 13.0 | 22.0 | 0.00 | 0.00 | 0.00 | 22 | 1012.5 |
| 20260503180103 | 70 | 280 | 14.0 | 18.0 | 0.00 | 0.00 | 0.00 | 23 | 1012.9 |
| 20260503174553 | 69 | 275 | 11.0 | 17.0 | 0.00 | 0.00 | 0.00 | 25 | 1012.9 |
| 20260503173058 | 69 | 295 | 12.0 | 25.0 | 0.00 | 0.00 | 0.00 | 27 | 1013.1 |
| 20260503171554 | 68 | 267 | 9.0 | 18.0 | 0.00 | 0.00 | 0.00 | 32 | 1013.4 |
| 20260503160110 | 60 | 232 | 9.0 | 16.0 | 0.00 | 0.00 | 0.00 | 49 | 1013.6 |
| 20260503081558 | 50 | 284 | 5.0 | 7.0 | 0.00 | 0.00 | 0.00 | 60 | 1016.1 |
| 20260503071559 | 48 | 298 | 4.0 | 5.0 | 0.00 | 0.00 | 0.00 | 66 | 1016.3 |